Tracking 19854 objects as of 22-Sep-2019
HD Live streaming from Space Station
objects crossing your sky now

GB 1

Track GB 1 now!
10-day predictions
GB 1 is classified as:


NORAD ID: 14143
Int'l Code: 1983-056C
Perigee: 383.2 km
Apogee: 1,745.4 km
Inclination: 63.3 °
Period: 106.3 minutes
Semi major axis: 7435 km
RCS: Unknown
Launch date: June 9, 1983
Source: United States (US)
Launch site: AIR FORCE WESTERN TEST RANGE (AFWTR)
aabbcc
Your satellite tracking list
Your tracking list is empty




NASA's NSSDC Master Catalog

Two Line Element Set (TLE):
1 14143U 83056C   19264.66122862  .00000598  00000-0  58489-4 0  9990
2 14143  63.2913  52.9396 0915995  87.2220 283.3063 13.54114987 11114
Source of the keplerian elements: McCants